• In Russia
  • List of Countries
  • For 7 days
  • Water Temperature
  • Satellite Maps
  • Weather Map
  • Weather Widgets
  • user-avatar
    Login

    Hourly Weather Przywilcz

    Today, 16 July, Monday

    Time Temperature Precipitation Wind Pressure Humidity
    00:00 +15°C° 0 mm 4 mps 745 mmHg 92%
    01:00 +16°C° 0 mm 3 mps 745 mmHg 95%
    02:00 +16°C° 0.1 mm 3 mps 745 mmHg 95%
    03:00 +16°C° 0.1 mm 3 mps 745 mmHg 96%
    04:00 +16°C° 0.1 mm 3 mps 745 mmHg 96%
    05:00 +17°C° 0.7 mm 3 mps 745 mmHg 94%
    06:00 +18°C° 0.7 mm 3 mps 745 mmHg 91%
    07:00 +20°C° 0 mm 4 mps 744 mmHg 87%
    08:00 +21°C° 0.9 mm 4 mps 744 mmHg 83%
    09:00 +22°C° 0.9 mm 4 mps 744 mmHg 80%
    10:00 +23°C° 0.9 mm 4 mps 744 mmHg 76%
    11:00 +25°C° 0.8 mm 4 mps 744 mmHg 76%
    12:00 +25°C° 0.8 mm 4 mps 743 mmHg 75%
    13:00 +25°C° 0.8 mm 4 mps 743 mmHg 73%
    14:00 +23°C° 1.2 mm 4 mps 743 mmHg 77%
    15:00 +23°C° 1.2 mm 4 mps 743 mmHg 81%
    16:00 +22°C° 1.2 mm 5 mps 743 mmHg 85%
    17:00 +21°C° 1.4 mm 4 mps 743 mmHg 87%
    18:00 +21°C° 1.4 mm 4 mps 742 mmHg 90%
    19:00 +20°C° 1.4 mm 3 mps 742 mmHg 92%
    20:00 +19°C° 0.9 mm 3 mps 742 mmHg 93%
    21:00 +19°C° 0.9 mm 3 mps 742 mmHg 94%
    22:00 +19°C° 0.9 mm 3 mps 742 mmHg 95%
    23:00 +19°C° 0.6 mm 3 mps 742 mmHg 95%

    Tomorrow, 17 July, Tuesday

    Time Temperature Precipitation Wind Pressure Humidity
    00:00 +18°C° 0.6 mm 3 mps 741 mmHg 95%
    01:00 +18°C° 0.6 mm 3 mps 741 mmHg 95%
    02:00 +18°C° 0.2 mm 3 mps 741 mmHg 95%
    03:00 +18°C° 0.2 mm 3 mps 741 mmHg 96%
    04:00 +18°C° 0.2 mm 4 mps 741 mmHg 96%
    05:00 +19°C° 0.6 mm 4 mps 740 mmHg 94%
    06:00 +19°C° 0.6 mm 4 mps 740 mmHg 93%
    07:00 +20°C° 0.6 mm 4 mps 740 mmHg 92%
    08:00 +21°C° 0.8 mm 3 mps 740 mmHg 89%
    09:00 +22°C° 0.8 mm 3 mps 740 mmHg 87%
    10:00 +22°C° 0.8 mm 3 mps 740 mmHg 84%
    11:00 +24°C° 0.6 mm 3 mps 740 mmHg 84%
    12:00 +24°C° 0.6 mm 3 mps 740 mmHg 83%
    13:00 +24°C° 0.6 mm 3 mps 740 mmHg 83%
    14:00 +24°C° 0.4 mm 3 mps 740 mmHg 84%
    15:00 +24°C° 0.4 mm 3 mps 740 mmHg 85%
    16:00 +24°C° 0.4 mm 3 mps 739 mmHg 86%
    17:00 +22°C° 1.1 mm 3 mps 739 mmHg 89%
    18:00 +21°C° 1.1 mm 2 mps 739 mmHg 91%
    19:00 +21°C° 1.1 mm 2 mps 739 mmHg 93%
    20:00 +21°C° 1 mm 2 mps 739 mmHg 94%
    21:00 +20°C° 1 mm 3 mps 739 mmHg 95%
    22:00 +20°C° 1 mm 3 mps 739 mmHg 96%
    23:00 +20°C° 0.7 mm 3 mps 739 mmHg 97%

    Day after tomorrow, 18 July, Wednesday

    Time Temperature Precipitation Wind Pressure Humidity
    00:00 +20°C° 0.7 mm 2 mps 739 mmHg 97%
    01:00 +20°C° 0.7 mm 2 mps 739 mmHg 97%
    02:00 +19°C° 0.1 mm 2 mps 739 mmHg 97%
    03:00 +19°C° 0.1 mm 2 mps 739 mmHg 97%
    04:00 +19°C° 0.1 mm 2 mps 739 mmHg 97%
    05:00 +20°C° 0.1 mm 2 mps 740 mmHg 95%
    06:00 +21°C° 0.1 mm 2 mps 740 mmHg 92%
    07:00 +23°C° 0.1 mm 2 mps 740 mmHg 89%
    08:00 +25°C° 0.8 mm 3 mps 740 mmHg 85%
    09:00 +26°C° 0.8 mm 3 mps 740 mmHg 80%
    10:00 +27°C° 0.8 mm 3 mps 740 mmHg 75%
    11:00 +28°C° 0.8 mm 3 mps 740 mmHg 73%
    12:00 +28°C° 0.8 mm 2 mps 740 mmHg 71%
    13:00 +29°C° 0.8 mm 2 mps 740 mmHg 69%
    14:00 +29°C° 0.7 mm 3 mps 740 mmHg 70%
    15:00 +28°C° 0.7 mm 3 mps 740 mmHg 72%
    16:00 +28°C° 0.7 mm 3 mps 740 mmHg 73%
    17:00 +27°C° 1 mm 3 mps 740 mmHg 78%
    18:00 +26°C° 1 mm 3 mps 740 mmHg 83%
    19:00 +25°C° 1 mm 3 mps 741 mmHg 88%
    20:00 +24°C° 1.1 mm 3 mps 741 mmHg 90%
    21:00 +22°C° 1.1 mm 3 mps 741 mmHg 92%
    22:00 +21°C° 1.1 mm 3 mps 741 mmHg 94%
    23:00 +21°C° 0.3 mm 3 mps 741 mmHg 94%

    19 July, Thursday

    Time Temperature Precipitation Wind Pressure Humidity
    00:00 +20°C° 0.3 mm 3 mps 741 mmHg 95%
    01:00 +20°C° 0.3 mm 3 mps 741 mmHg 95%
    02:00 +20°C° 0 mm 3 mps 741 mmHg 95%
    03:00 +19°C° 0 mm 3 mps 742 mmHg 96%
    04:00 +19°C° 0 mm 3 mps 742 mmHg 96%
    05:00 +20°C° 0 mm 3 mps 742 mmHg 93%
    06:00 +21°C° 0 mm 4 mps 742 mmHg 90%
    07:00 +22°C° 0 mm 4 mps 742 mmHg 87%
    08:00 +23°C° 0.1 mm 4 mps 742 mmHg 79%
    09:00 +26°C° 0.1 mm 4 mps 742 mmHg 71%
    10:00 +27°C° 0.1 mm 4 mps 742 mmHg 63%
    11:00 +28°C° 0.1 mm 4 mps 742 mmHg 61%
    12:00 +28°C° 0.1 mm 4 mps 742 mmHg 59%
    13:00 +29°C° 0.1 mm 4 mps 742 mmHg 57%
    14:00 +28°C° 0.3 mm 5 mps 742 mmHg 60%
    15:00 +28°C° 0.3 mm 5 mps 742 mmHg 64%
    16:00 +27°C° 0.3 mm 5 mps 742 mmHg 67%
    17:00 +26°C° 0.2 mm 5 mps 743 mmHg 72%
    18:00 +25°C° 0.2 mm 4 mps 743 mmHg 77%
    19:00 +24°C° 0.2 mm 3 mps 743 mmHg 82%
    20:00 +22°C° 0.1 mm 4 mps 743 mmHg 85%
    21:00 +20°C° 0.1 mm 4 mps 743 mmHg 88%
    22:00 +19°C° 0.1 mm 4 mps 743 mmHg 91%
    23:00 +19°C° 0 mm 4 mps 743 mmHg 92%

    20 July, Friday

    Time Temperature Precipitation Wind Pressure Humidity
    00:00 +18°C° 0 mm 4 mps 743 mmHg 92%
    01:00 +18°C° 0 mm 4 mps 743 mmHg 93%
    02:00 +17°C° 0 mm 4 mps 743 mmHg 94%
    03:00 +17°C° 0 mm 3 mps 743 mmHg 95%
    04:00 +17°C° 0 mm 3 mps 743 mmHg 96%
    05:00 +18°C° 0 mm 3 mps 743 mmHg 92%
    06:00 +19°C° 0 mm 3 mps 744 mmHg 88%
    07:00 +21°C° 0 mm 3 mps 744 mmHg 83%
    08:00 +22°C° 0.1 mm 4 mps 744 mmHg 75%
    09:00 +25°C° 0.1 mm 4 mps 744 mmHg 67%
    10:00 +27°C° 0.1 mm 4 mps 744 mmHg 58%
    11:00 +27°C° 0 mm 4 mps 743 mmHg 56%
    12:00 +28°C° 0 mm 4 mps 743 mmHg 54%
    13:00 +28°C° 0 mm 5 mps 743 mmHg 52%
    14:00 +28°C° 0.1 mm 5 mps 743 mmHg 54%
    15:00 +27°C° 0.1 mm 5 mps 743 mmHg 56%
    16:00 +27°C° 0.1 mm 5 mps 743 mmHg 58%
    17:00 +26°C° 0.1 mm 4 mps 743 mmHg 65%
    18:00 +24°C° 0.1 mm 3 mps 743 mmHg 72%
    19:00 +22°C° 0.1 mm 3 mps 743 mmHg 79%
    20:00 +21°C° 0 mm 3 mps 743 mmHg 84%
    21:00 +19°C° 0 mm 3 mps 744 mmHg 89%
    22:00 +18°C° 0 mm 3 mps 744 mmHg 93%
    23:00 +18°C° 0 mm 3 mps 744 mmHg 93%

    21 July, Saturday

    Time Temperature Precipitation Wind Pressure Humidity
    00:00 +17°C° 0 mm 3 mps 744 mmHg 93%
    01:00 +17°C° 0 mm 3 mps 744 mmHg 93%
    02:00 +16°C° 0 mm 2 mps 744 mmHg 92%
    03:00 +16°C° 0 mm 2 mps 744 mmHg 92%
    04:00 +15°C° 0 mm 2 mps 744 mmHg 91%
    05:00 +16°C° 0 mm 2 mps 744 mmHg 85%
    06:00 +18°C° 0 mm 2 mps 744 mmHg 79%
    07:00 +19°C° 0 mm 2 mps 744 mmHg 74%
    08:00 +20°C° 0 mm 3 mps 744 mmHg 68%
    09:00 +22°C° 0 mm 3 mps 744 mmHg 61%
    10:00 +24°C° 0 mm 3 mps 744 mmHg 55%
    11:00 +25°C° 0 mm 3 mps 744 mmHg 53%
    12:00 +25°C° 0 mm 3 mps 744 mmHg 50%
    13:00 +26°C° 0 mm 3 mps 743 mmHg 48%
    14:00 +26°C° 0 mm 3 mps 743 mmHg 49%
    15:00 +26°C° 0 mm 3 mps 743 mmHg 50%
    16:00 +26°C° 0 mm 3 mps 743 mmHg 50%
    17:00 +24°C° 0 mm 3 mps 743 mmHg 57%
    18:00 +22°C° 0 mm 3 mps 743 mmHg 64%
    19:00 +21°C° 0 mm 2 mps 743 mmHg 71%
    20:00 +19°C° 0 mm 2 mps 743 mmHg 77%
    21:00 +18°C° 0 mm 2 mps 743 mmHg 83%
    22:00 +16°C° 0 mm 2 mps 744 mmHg 88%
    23:00 +15°C° 0 mm 2 mps 744 mmHg 89%
    Show more